QPF
0.00 0.00 0.00 0.00 0.00 0.00 0.00 0.00 0.00 0.00 0.00 0.00 0.00 0.00 0.00 0.00 0.00 0.00 0.00 0.00 0.00 0.00 0.00 0.00 0.00 0.00 0.00 0.00 0.00 0.00 0.00 0.00 0.00 0.00 0.00 0.00 0.00 0.00 0.00 0.00 0.00 0.00 0.00
0.00 0.00 0.00 0.00 0.00 0.00 0.00 0.00 0.00 0.00 0.00 0.00 0.00 0.00 0.00 0.00 0.00 0.00 0.00 0.00 0.00 0.00 0.00 0.00 0.00 0.00 0.00 0.00 0.00 0.00 0.00 0.00 0.00 0.00 0.00 0.00 0.00 0.00 0.00 0.00 0.00 0.00 0.00
0.00 0.00 0.00 0.00 0.00 0.00 0.00 0.00 0.00 0.00 0.00 0.00 0.00 0.00 0.00 0.00 0.00 0.00 0.00 0.00 0.00 0.00 0.00 0.00 0.00 0.00 0.00 0.00 0.00 0.00 0.00 0.00 0.00 0.00 0.00 0.00 0.00 0.00 0.00 0.00 0.00 0.00 0.00
0.00 0.00 0.00 0.00 0.00 0.00 0.00 0.00 0.00 0.00 0.00 0.00 0.00 0.00 0.00 0.00 0.00 0.00 0.00 0.00 0.00 0.00 0.00 0.00 0.00 0.00 0.00 0.00 0.00 0.00 0.00 0.00 0.00 0.00 0.00 0.00 0.00 0.00 0.00 0.00 0.00 0.00 0.00
0.00 0.00 0.00 0.00 0.00 0.00 0.00 0.00 0.00 0.00 0.00 0.00 0.00 0.00 0.00 0.00 0.00 0.00 0.00 0.00 0.00 0.00 0.00 0.00 0.00 0.00 0.00 0.00 0.00 0.00 0.00 0.00 0.00 0.00 0.01 0.00 0.00 0.00 0.00 0.00 0.00 0.00 0.00
0.00 0.00 0.00 0.00 0.00 0.00 0.00 0.00 0.00 0.00 0.00 0.00 0.00 0.00 0.00 0.00 0.00 0.00 0.00 0.00 0.00 0.00 0.00 0.00 0.00 0.00 0.00 0.00 0.00 0.00 0.00 0.00 0.00 0.00 0.01 0.00 0.00 0.00 0.01 0.02 0.01 0.00 0.00
0.00 0.00 0.00 0.00 0.00 0.00 0.00 0.00 0.00 0.00 0.00 0.00 0.00 0.00 0.00 0.00 0.00 0.00 0.00 0.00 0.00 0.00 0.00 0.00 0.00 0.00 0.00 0.00 0.00 0.00 0.00 0.00 0.00 0.01 0.00 0.00 0.00 0.00 0.00 0.02 0.04 0.00 0.00
0.00 0.00 0.00 0.00 0.00 0.00 0.00 0.00 0.00 0.00 0.00 0.00 0.00 0.00 0.00 0.00 0.00 0.00 0.00 0.00 0.00 0.00 0.00 0.00 0.00 0.00 0.00 0.00 0.00 0.00 0.00 0.00 0.00 0.02 0.01 0.00 0.00 0.00 0.00 0.00 0.03 0.01 0.00
0.00 0.00 0.00 0.00 0.00 0.00 0.00 0.00 0.00 0.00 0.00 0.00 0.00 0.00 0.00 0.00 0.00 0.00 0.00 0.00 0.00 0.00 0.00 0.00 0.00 0.00 0.00 0.00 0.00 0.00 0.00 0.00 0.00 0.01 0.00 0.00 0.00 0.00 0.00 0.01 0.01 0.00 0.00
0.00 0.00 0.00 0.00 0.00 0.00 0.00 0.00 0.00 0.00 0.00 0.00 0.00 0.00 0.00 0.00 0.00 0.00 0.00 0.00 0.00 0.00 0.00 0.00 0.00 0.00 0.00 0.00 0.00 0.00 0.00 0.00 0.00 0.00 0.00 0.00 0.00 0.00 0.02 0.01 0.01 0.01 0.00
0.00 0.00 0.00 0.00 0.00 0.00 0.00 0.00 0.00 0.00 0.00 0.00 0.00 0.00 0.00 0.00 0.00 0.00 0.00 0.00 0.00 0.00 0.00 0.00 0.00 0.00 0.00 0.00 0.00 0.00 0.00 0.00 0.00 0.00 0.00 0.00 0.00 0.00 0.00 0.00 0.01 0.00 0.00
0.00 0.00 0.00 0.00 0.00 0.00 0.00 0.00 0.00 0.00 0.00 0.00 0.00 0.00 0.00 0.00 0.00 0.00 0.00 0.00 0.00 0.00 0.00 0.00 0.00 0.00 0.00 0.00 0.00 0.00 0.00 0.00 0.00 0.00 0.00 0.01 0.01 0.03 0.00 0.00 0.00 0.00 0.00
0.00 0.00 0.00 0.00 0.00 0.00 0.00 0.00 0.00 0.00 0.00 0.00 0.00 0.00 0.00 0.00 0.00 0.00 0.00 0.00 0.00 0.00 0.00 0.00 0.00 0.00 0.00 0.00 0.00 0.00 0.00 0.00 0.00 0.00 0.00 0.02 0.06 0.14 0.00 0.02 0.02 0.00 0.00
0.00 0.00 0.00 0.00 0.00 0.00 0.00 0.00 0.00 0.00 0.00 0.00 0.00 0.00 0.00 0.00 0.00 0.00 0.00 0.00 0.00 0.00 0.00 0.00 0.00 0.00 0.00 0.00 0.00 0.00 0.00 0.00 0.00 0.00 0.00 0.04 0.05 0.06 0.01 0.01 0.01 0.00 0.00
0.00 0.00 0.00 0.00 0.00 0.00 0.00 0.00 0.00 0.00 0.00 0.00 0.00 0.00 0.00 0.00 0.00 0.00 0.00 0.00 0.00 0.00 0.00 0.00 0.00 0.00 0.00 0.00 0.00 0.00 0.00 0.00 0.00 0.00 0.01 0.02 0.10 0.08 0.00 0.00 0.00 0.00 0.00
0.00 0.00 0.00 0.00 0.00 0.00 0.00 0.00 0.00 0.00 0.00 0.00 0.00 0.00 0.00 0.00 0.00 0.00 0.00 0.00 0.00 0.00 0.00 0.00 0.00 0.00 0.00 0.00 0.00 0.00 0.00 0.00 0.00 0.00 0.01 0.01 0.05 0.10 0.07 0.06 0.01 0.00 0.00
0.00 0.00 0.00 0.00 0.00 0.00 0.00 0.00 0.00 0.00 0.00 0.00 0.00 0.00 0.00 0.00 0.00 0.00 0.00 0.00 0.00 0.00 0.00 0.00 0.00 0.00 0.00 0.00 0.00 0.00 0.00 0.00 0.00 0.00 0.00 0.00 0.07 0.21 0.14 0.07 0.04 0.00 0.00
0.00 0.00 0.00 0.00 0.00 0.00 0.00 0.00 0.00 0.00 0.00 0.00 0.00 0.00 0.00 0.00 0.00 0.00 0.00 0.00 0.00 0.00 0.00 0.00 0.00 0.00 0.00 0.00 0.00 0.00 0.00 0.00 0.00 0.00 0.00 0.02 0.08 0.16 0.10 0.09 0.04 0.00 0.00
0.00 0.00 0.00 0.00 0.00 0.00 0.00 0.00 0.00 0.00 0.00 0.00 0.00 0.00 0.00 0.00 0.00 0.00 0.00 0.00 0.00 0.00 0.00 0.00 0.00 0.00 0.00 0.00 0.00 0.00 0.00 0.00 0.00 0.01 0.08 0.13 0.20 0.25 0.21 0.14 0.06 0.01 0.00
0.00 0.00 0.00 0.00 0.00 0.00 0.00 0.00 0.00 0.00 0.00 0.00 0.00 0.00 0.00 0.00 0.00 0.00 0.00 0.00 0.00 0.00 0.00 0.00 0.00 0.00 0.00 0.00 0.00 0.00 0.00 0.00 0.05 0.19 0.36 0.35 0.31 0.32 0.23 0.11 0.06 0.03 0.01
0.01 0.01 0.00 0.00 0.00 0.00 0.00 0.00 0.01 0.01 0.01 0.01 0.02 0.01 0.01 0.00 0.00 0.00 0.00 0.00 0.00 0.00 0.00 0.00 0.00 0.00 0.00 0.00 0.00 0.00 0.03 0.10 0.20 0.30 0.33 0.28 0.26 0.18 0.08 0.06 0.04 0.02 0.01
0.00 0.00 0.01 0.01 0.00 0.00 0.00 0.00 0.00 0.00 0.00 0.01 0.01 0.01 0.01 0.00 0.00 0.00 0.00 0.00 0.00 0.00 0.00 0.00 0.00 0.00 0.00 0.00 0.00 0.00 0.01 0.10 0.33 0.34 0.40 0.32 0.19 0.09 0.04 0.03 0.03 0.02 0.01
0.00 0.00 0.01 0.02 0.02 0.01 0.00 0.00 0.00 0.00 0.00 0.00 0.00 0.00 0.00 0.00 0.00 0.00 0.00 0.00 0.00 0.00 0.00 0.00 0.00 0.00 0.00 0.00 0.00 0.01 0.11 0.33 0.51 0.46 0.31 0.16 0.08 0.02 0.01 0.01 0.00 0.00 0.00
0.00 0.00 0.00 0.01 0.01 0.01 0.01 0.01 0.00 0.00 0.00 0.00 0.00 0.00 0.00 0.00 0.00 0.00 0.00 0.00 0.00 0.00 0.00 0.00 0.00 0.00 0.00 0.00 0.00 0.01 0.06 0.24 0.27 0.19 0.19 0.07 0.01 0.00 0.00 0.00 0.00 0.00 0.00
0.00 0.00 0.00 0.00 0.00 0.00 0.00 0.00 0.00 0.00 0.00 0.00 0.00 0.00 0.00 0.00 0.00 0.00 0.00 0.00 0.00 0.00 0.00 0.00 0.00 0.01 0.02 0.01 0.04 0.06 0.14 0.16 0.07 0.05 0.06 0.03 0.01 0.00 0.00 0.00 0.00 0.00 0.00
0.00 0.00 0.00 0.00 0.00 0.00 0.00 0.00 0.00 0.00 0.00 0.00 0.00 0.00 0.00 0.00 0.00 0.00 0.00 0.00 0.00 0.00 0.00 0.00 0.00 0.00 0.01 0.03 0.05 0.02 0.02 0.02 0.02 0.02 0.01 0.01 0.00 0.00 0.00 0.00 0.00 0.00 0.00
MSLP
1004.51 1005.13 1005.76 1006.54 1007.29 1008.11 1008.82 1009.53 1010.14 1010.68 1011.31 1012.05 1012.62 1013.04 1012.98 1012.75 1012.85 1012.83 1012.88 1013.12 1013.40 1013.63 1013.82 1013.88 1014.14 1014.12 1014.47 1014.58 1014.57 1014.65 1014.71 1014.70 1014.75 1014.76 1014.40 1014.32 1014.28 1014.29 1014.17 1014.03 1013.93 1013.69 1013.49
1004.44 1004.90 1005.40 1005.92 1006.75 1007.39 1008.15 1008.99 1009.53 1010.29 1010.83 1011.25 1011.85 1012.19 1012.23 1012.42 1012.41 1012.45 1012.42 1012.69 1012.96 1013.24 1013.57 1013.80 1014.05 1014.25 1014.38 1014.45 1014.56 1014.71 1014.80 1014.83 1014.79 1015.06 1015.22 1015.25 1014.65 1014.14 1013.94 1013.83 1013.70 1013.47 1013.22
1003.82 1004.44 1005.02 1005.47 1006.23 1006.87 1007.50 1008.22 1008.92 1009.67 1010.30 1010.83 1011.50 1011.94 1012.09 1012.33 1012.40 1012.56 1012.65 1012.59 1012.70 1012.96 1013.14 1013.42 1013.79 1014.01 1014.12 1014.38 1014.59 1014.70 1014.83 1015.02 1014.87 1014.73 1015.00 1015.46 1015.73 1015.38 1014.31 1013.99 1013.76 1013.36 1013.12
1003.19 1003.69 1004.37 1005.04 1005.52 1006.09 1006.74 1007.49 1008.33 1009.17 1009.75 1010.39 1011.10 1011.37 1011.64 1012.18 1012.07 1012.08 1012.13 1012.31 1012.37 1012.67 1012.87 1013.05 1013.23 1013.69 1013.95 1014.13 1014.40 1014.53 1014.72 1014.98 1015.15 1014.95 1014.91 1015.22 1015.51 1015.74 1015.41 1014.33 1013.94 1013.56 1013.42
1002.07 1002.64 1003.26 1003.98 1004.76 1005.65 1006.37 1006.98 1007.83 1008.68 1009.20 1009.86 1010.32 1010.80 1011.20 1011.45 1011.64 1011.81 1012.08 1012.28 1012.36 1012.37 1012.55 1012.71 1012.97 1013.53 1013.87 1013.95 1014.15 1014.37 1014.62 1014.83 1014.95 1015.09 1015.09 1015.22 1015.33 1015.48 1015.61 1015.26 1014.70 1013.99 1013.70
1001.18 1001.74 1002.36 1003.46 1004.45 1005.11 1006.06 1006.84 1007.58 1008.19 1008.69 1009.32 1009.91 1010.43 1010.61 1010.96 1011.54 1011.72 1011.83 1012.00 1012.19 1012.26 1012.41 1012.39 1012.80 1013.12 1013.58 1013.80 1013.90 1014.19 1014.37 1014.51 1014.78 1014.93 1014.95 1015.16 1015.25 1015.26 1015.47 1015.69 1015.44 1015.28 1014.64
1000.49 1001.15 1002.01 1002.56 1003.58 1004.53 1005.33 1006.34 1007.08 1007.76 1008.23 1008.79 1009.40 1009.88 1010.13 1010.43 1010.84 1011.18 1011.50 1011.78 1012.03 1012.22 1012.12 1012.32 1012.63 1012.94 1013.27 1013.58 1013.82 1014.02 1014.16 1014.30 1014.45 1014.47 1014.56 1014.65 1014.81 1014.96 1015.25 1015.42 1015.55 1015.43 1014.91
999.00 999.71 1000.30 1001.26 1002.36 1003.49 1004.54 1005.32 1006.40 1007.10 1007.76 1008.31 1008.72 1009.23 1009.69 1009.94 1010.21 1010.56 1011.01 1011.32 1011.54 1011.50 1011.53 1011.85 1012.17 1012.54 1012.91 1013.19 1013.60 1013.94 1013.97 1014.04 1014.19 1014.30 1014.28 1014.41 1014.49 1014.64 1014.70 1014.94 1015.28 1015.49 1015.41
998.88 999.28 999.68 1000.33 1001.48 1002.45 1003.32 1004.29 1005.36 1006.31 1006.98 1007.42 1008.10 1008.75 1009.20 1009.50 1009.74 1010.18 1010.49 1010.71 1010.87 1011.03 1011.25 1011.45 1011.76 1012.15 1012.51 1012.81 1013.13 1013.45 1013.68 1013.81 1013.83 1013.98 1014.01 1014.08 1014.03 1014.14 1014.31 1014.42 1014.73 1015.19 1015.72
998.03 998.06 998.68 999.36 1000.23 1001.08 1002.14 1003.46 1004.34 1005.31 1005.92 1006.72 1007.35 1007.98 1008.49 1008.95 1009.26 1009.66 1010.18 1010.38 1010.49 1010.70 1010.87 1011.13 1011.49 1011.82 1012.11 1012.39 1012.71 1012.96 1013.11 1013.33 1013.55 1013.58 1013.73 1013.66 1013.76 1013.94 1014.06 1014.27 1014.31 1014.56 1014.99
997.84 998.36 998.87 999.65 1000.40 1001.57 1001.93 1002.76 1003.85 1004.81 1005.65 1006.37 1006.85 1007.45 1007.95 1008.37 1008.79 1009.14 1009.45 1009.69 1009.96 1010.15 1010.41 1010.65 1010.99 1011.37 1011.67 1011.95 1012.24 1012.39 1012.64 1013.01 1013.22 1013.22 1013.29 1013.31 1013.44 1013.52 1013.64 1013.88 1014.10 1014.41 1014.72
998.69 998.82 998.89 999.10 1000.00 1001.14 1002.12 1002.78 1003.22 1004.10 1004.73 1005.42 1006.15 1006.57 1007.08 1007.71 1008.19 1008.52 1008.83 1009.06 1009.34 1009.54 1009.81 1010.15 1010.45 1010.79 1011.12 1011.39 1011.64 1011.89 1012.15 1012.56 1012.81 1012.80 1012.92 1012.93 1013.04 1013.26 1013.36 1013.57 1014.01 1014.28 1014.61
999.56 999.17 998.26 998.65 998.95 1000.12 1001.19 1002.23 1003.19 1003.34 1003.99 1004.88 1005.55 1006.17 1006.67 1007.14 1007.39 1007.77 1008.19 1008.55 1008.82 1008.95 1009.22 1009.58 1009.90 1010.26 1010.58 1010.86 1011.06 1011.18 1011.44 1011.74 1011.94 1012.08 1012.23 1012.09 1012.33 1012.50 1012.74 1013.11 1013.56 1013.87 1014.18
999.27 998.68 997.75 998.21 998.47 998.95 999.83 1001.04 1002.05 1003.14 1003.57 1004.40 1004.93 1005.34 1005.69 1006.10 1006.57 1007.10 1007.55 1007.82 1008.19 1008.42 1008.60 1008.85 1009.13 1009.52 1009.88 1010.14 1010.40 1010.57 1010.88 1011.06 1011.19 1011.37 1011.46 1011.46 1011.70 1011.98 1012.32 1012.66 1012.68 1013.12 1013.56
999.17 998.48 998.50 998.13 998.48 998.50 999.02 999.88 1000.95 1001.90 1003.00 1003.54 1004.28 1004.44 1004.82 1005.37 1006.00 1006.53 1006.83 1007.17 1007.55 1007.70 1007.74 1008.19 1008.54 1008.79 1009.10 1009.29 1009.58 1009.84 1010.13 1010.35 1010.66 1010.75 1010.78 1010.85 1010.94 1010.98 1011.16 1011.76 1012.26 1012.12 1012.46
999.52 998.87 998.70 998.71 998.02 998.51 998.34 998.95 999.87 1000.89 1002.14 1002.84 1003.33 1003.76 1004.49 1004.99 1005.45 1005.93 1006.20 1006.52 1006.69 1006.94 1007.21 1007.32 1007.60 1008.13 1008.12 1008.23 1008.51 1008.89 1009.39 1009.64 1009.91 1010.02 1009.91 1010.03 1010.05 1010.50 1010.98 1011.54 1011.30 1011.31 1011.83
1000.05 999.49 999.44 999.49 998.42 998.17 998.41 998.70 998.88 999.57 1000.90 1001.78 1002.59 1003.48 1004.00 1004.40 1004.71 1005.19 1005.74 1006.02 1006.02 1006.23 1006.36 1006.41 1006.74 1006.99 1007.01 1007.19 1007.49 1007.97 1008.43 1008.81 1008.89 1008.92 1009.07 1009.52 1009.84 1010.43 1010.83 1010.71 1011.88 1012.11 1012.85
1000.39 1000.27 1000.36 1000.28 999.57 999.06 998.55 998.68 999.08 999.96 1000.70 1001.64 1002.15 1002.84 1003.61 1003.99 1004.52 1004.96 1005.11 1005.27 1005.55 1005.68 1005.67 1005.82 1005.93 1006.09 1006.03 1006.32 1006.68 1007.11 1007.62 1007.87 1007.81 1007.99 1008.29 1008.83 1009.04 1009.39 1010.06 1011.45 1011.75 1012.05 1012.42
1001.55 1001.78 1001.57 1001.20 1000.26 1000.10 999.60 999.24 999.97 1000.72 1001.52 1002.15 1002.64 1002.97 1003.33 1003.79 1004.15 1004.38 1004.45 1004.51 1004.83 1004.87 1004.82 1004.80 1005.02 1005.19 1005.01 1005.24 1005.59 1006.43 1006.82 1007.05 1007.00 1007.21 1007.75 1008.31 1008.63 1009.02 1010.04 1011.51 1012.49 1012.57 1013.40
1002.99 1002.61 1002.42 1001.94 1001.31 1001.16 1000.51 1000.35 1001.45 1001.99 1002.92 1002.98 1002.99 1003.03 1003.19 1003.46 1003.77 1003.90 1003.91 1003.77 1003.89 1003.83 1003.98 1004.00 1003.95 1004.10 1004.14 1004.40 1004.95 1005.68 1006.26 1006.84 1007.08 1008.26 1009.14 1009.30 1009.67 1010.87 1011.21 1009.14 1012.07 1013.16 1013.96
1004.07 1003.67 1003.22 1002.84 1002.83 1002.50 1002.50 1002.50 1002.92 1003.40 1003.75 1003.44 1003.48 1003.64 1003.55 1003.46 1003.41 1003.39 1003.45 1003.48 1003.44 1003.37 1003.34 1003.42 1003.49 1003.58 1003.69 1003.60 1004.06 1004.86 1005.45 1006.06 1007.24 1008.30 1008.97 1008.92 1008.41 1009.07 1008.90 1011.17 1011.34 1012.32 1012.99
1004.67 1004.40 1004.14 1004.09 1004.09 1003.80 1003.75 1003.78 1004.08 1003.75 1003.87 1003.59 1003.68 1003.88 1003.86 1003.57 1003.62 1003.51 1003.10 1003.03 1003.09 1003.04 1002.89 1003.03 1003.58 1003.76 1003.89 1003.75 1004.05 1004.38 1004.82 1005.42 1006.58 1007.42 1007.93 1008.03 1008.03 1007.99 1009.54 1010.25 1009.46 1011.19 1012.49
1005.80 1004.92 1004.96 1004.73 1004.46 1004.20 1004.23 1004.26 1004.44 1004.27 1004.19 1003.81 1003.11 1003.37 1003.92 1004.12 1004.25 1004.01 1003.60 1003.23 1002.69 1002.61 1002.80 1003.16 1003.54 1003.92 1004.07 1004.15 1003.88 1003.85 1004.27 1004.92 1006.04 1007.10 1007.77 1008.10 1008.22 1008.84 1010.39 1011.54 1011.23 1011.69 1012.62
1006.00 1005.66 1004.99 1005.13 1005.18 1004.84 1004.45 1004.30 1004.18 1004.18 1004.00 1003.76 1003.10 1003.10 1003.65 1003.93 1004.14 1004.27 1004.22 1003.77 1002.91 1002.28 1002.58 1003.10 1003.54 1003.93 1004.13 1004.35 1004.62 1004.99 1005.12 1005.35 1006.29 1007.21 1008.62 1009.46 1009.51 1009.79 1009.93 1010.95 1011.36 1011.49 1011.29
1005.60 1006.07 1005.47 1005.24 1005.27 1005.14 1005.14 1005.17 1004.78 1004.51 1003.94 1003.80 1003.69 1003.80 1004.16 1004.45 1004.55 1004.81 1005.05 1004.65 1003.73 1003.08 1002.51 1002.62 1002.87 1003.43 1003.99 1004.28 1004.37 1004.59 1005.23 1005.65 1006.48 1007.45 1008.49 1009.33 1009.94 1009.95 1010.57 1011.10 1011.27 1011.40 1011.79
1005.18 1005.26 1005.27 1005.04 1005.05 1004.90 1004.70 1004.54 1004.45 1004.49 1004.55 1004.39 1004.01 1004.26 1004.21 1004.48 1004.56 1004.58 1004.91 1005.05 1004.52 1003.35 1002.64 1002.44 1002.88 1003.61 1003.96 1004.64 1005.55 1005.45 1005.65 1006.66 1007.37 1007.93 1008.74 1009.32 1009.40 1010.16 1010.48 1010.87 1011.27 1011.85 1012.28
Thickness
5837 5834 5834 5831 5826 5821 5816 5811 5808 5807 5805 5800 5795 5792 5794 5800 5801 5803 5803 5801 5800 5797 5795 5794 5793 5791 5789 5789 5788 5788 5788 5786 5786 5783 5787 5786 5785 5783 5782 5782 5782 5782 5781
5832 5833 5832 5833 5829 5824 5821 5816 5814 5810 5809 5808 5804 5801 5802 5803 5805 5806 5806 5804 5801 5799 5796 5795 5792 5792 5791 5791 5790 5790 5788 5787 5787 5781 5776 5767 5777 5785 5788 5788 5787 5786 5786
5832 5833 5832 5832 5830 5827 5824 5821 5818 5816 5813 5812 5806 5804 5804 5803 5803 5803 5802 5804 5802 5800 5797 5795 5793 5794 5795 5792 5791 5791 5789 5784 5787 5788 5779 5766 5761 5769 5784 5785 5786 5788 5789
5839 5838 5834 5831 5831 5831 5830 5827 5823 5818 5816 5812 5806 5805 5802 5797 5802 5803 5806 5805 5804 5800 5797 5796 5797 5797 5797 5795 5794 5794 5791 5787 5782 5785 5786 5781 5776 5764 5763 5781 5784 5788 5787
5845 5842 5840 5837 5835 5833 5830 5828 5823 5818 5818 5813 5811 5808 5805 5806 5805 5805 5804 5803 5804 5802 5801 5800 5800 5798 5798 5797 5797 5795 5792 5789 5786 5783 5782 5781 5779 5778 5771 5766 5774 5782 5784
5851 5849 5848 5840 5832 5833 5830 5826 5821 5818 5818 5816 5812 5809 5808 5806 5802 5803 5804 5804 5804 5805 5804 5804 5802 5802 5799 5798 5798 5796 5794 5791 5789 5787 5786 5782 5779 5778 5773 5766 5767 5766 5774
5853 5848 5843 5841 5834 5829 5828 5825 5821 5817 5818 5817 5814 5811 5810 5810 5807 5806 5805 5805 5804 5804 5806 5807 5805 5804 5802 5801 5800 5797 5795 5794 5791 5791 5790 5789 5785 5783 5778 5773 5769 5768 5773
5869 5863 5858 5850 5841 5834 5830 5828 5822 5819 5819 5818 5817 5815 5813 5813 5812 5812 5810 5809 5809 5811 5813 5812 5810 5808 5806 5803 5801 5798 5797 5797 5794 5793 5793 5791 5789 5786 5785 5781 5774 5768 5768
5870 5866 5863 5856 5846 5842 5838 5833 5828 5824 5822 5821 5819 5816 5815 5814 5815 5814 5814 5815 5816 5816 5815 5815 5812 5810 5808 5807 5804 5801 5799 5799 5798 5796 5795 5792 5792 5790 5789 5786 5783 5772 5761
5869 5876 5869 5863 5856 5852 5847 5838 5835 5828 5827 5824 5822 5820 5818 5818 5819 5818 5816 5817 5818 5818 5817 5816 5813 5812 5811 5809 5807 5805 5805 5802 5800 5798 5796 5796 5795 5792 5789 5786 5783 5779 5771
5866 5868 5868 5862 5855 5844 5844 5839 5834 5829 5825 5824 5824 5822 5821 5821 5822 5821 5822 5822 5822 5822 5820 5820 5818 5815 5812 5811 5809 5808 5807 5803 5800 5800 5798 5797 5796 5793 5792 5788 5784 5780 5774
5861 5864 5868 5866 5858 5844 5836 5833 5835 5832 5831 5830 5827 5827 5827 5825 5824 5825 5826 5826 5826 5826 5825 5825 5823 5820 5816 5815 5813 5810 5809 5804 5801 5800 5798 5796 5796 5792 5791 5788 5783 5779 5774
5850 5856 5869 5865 5867 5854 5844 5834 5828 5836 5837 5833 5831 5830 5829 5827 5828 5829 5829 5829 5829 5830 5829 5829 5826 5823 5820 5818 5818 5817 5814 5811 5808 5805 5802 5803 5800 5797 5794 5790 5785 5780 5775
5847 5856 5871 5869 5869 5869 5857 5845 5835 5832 5838 5834 5833 5832 5834 5834 5833 5832 5832 5833 5833 5833 5832 5832 5831 5828 5825 5824 5822 5820 5816 5814 5812 5808 5807 5806 5802 5797 5791 5788 5787 5781 5774
5840 5856 5856 5869 5867 5873 5870 5857 5848 5843 5837 5838 5835 5837 5839 5838 5836 5835 5836 5836 5835 5836 5838 5835 5833 5831 5829 5829 5826 5823 5819 5816 5811 5810 5810 5808 5805 5803 5798 5789 5782 5782 5777
5833 5848 5855 5859 5868 5868 5873 5867 5859 5850 5844 5840 5838 5841 5840 5839 5837 5836 5837 5837 5838 5838 5837 5837 5835 5832 5834 5834 5831 5828 5821 5817 5813 5810 5812 5809 5806 5798 5788 5780 5782 5783 5774
5820 5832 5844 5849 5860 5865 5870 5865 5867 5865 5854 5848 5844 5839 5840 5839 5839 5838 5837 5836 5837 5837 5838 5839 5837 5836 5837 5836 5834 5829 5825 5819 5816 5815 5812 5805 5801 5792 5783 5778 5769 5765 5757
5815 5820 5829 5833 5844 5856 5862 5864 5862 5857 5852 5846 5845 5841 5837 5838 5837 5835 5836 5837 5837 5835 5836 5837 5838 5838 5841 5838 5835 5831 5826 5822 5821 5818 5811 5803 5800 5791 5778 5761 5757 5753 5750
5793 5799 5810 5820 5831 5833 5844 5851 5846 5843 5838 5835 5834 5836 5837 5833 5832 5834 5837 5838 5836 5837 5839 5840 5838 5838 5842 5839 5837 5829 5825 5821 5819 5816 5808 5798 5792 5776 5762 5746 5731 5732 5729
5771 5783 5795 5806 5815 5819 5828 5831 5825 5823 5820 5822 5826 5831 5833 5833 5831 5832 5835 5838 5839 5842 5841 5840 5841 5841 5843 5841 5836 5828 5820 5812 5809 5794 5782 5778 5771 5752 5736 5731 5719 5712 5707
5752 5763 5776 5788 5794 5798 5802 5804 5804 5803 5806 5814 5817 5818 5822 5826 5829 5832 5834 5835 5836 5838 5839 5838 5839 5838 5839 5842 5835 5826 5817 5811 5796 5784 5775 5772 5771 5754 5752 5718 5698 5706 5713
5736 5744 5751 5760 5770 5780 5782 5784 5782 5788 5793 5801 5805 5805 5809 5815 5819 5821 5828 5830 5831 5832 5833 5831 5826 5827 5830 5832 5827 5821 5814 5809 5796 5784 5776 5765 5761 5751 5740 5728 5731 5717 5702
5712 5726 5732 5742 5752 5761 5767 5766 5769 5775 5780 5786 5796 5797 5795 5796 5798 5804 5811 5817 5824 5824 5825 5821 5818 5818 5820 5820 5819 5818 5812 5803 5793 5781 5771 5762 5753 5742 5725 5712 5715 5710 5694
5699 5709 5720 5725 5731 5741 5750 5757 5760 5766 5770 5775 5786 5789 5787 5787 5787 5789 5793 5801 5811 5819 5813 5809 5807 5806 5807 5807 5803 5798 5795 5791 5780 5767 5754 5741 5736 5727 5720 5708 5700 5696 5694
5692 5693 5703 5711 5717 5726 5731 5735 5743 5749 5758 5761 5766 5771 5772 5773 5772 5770 5770 5777 5788 5798 5805 5803 5800 5797 5794 5792 5791 5787 5780 5773 5763 5752 5742 5733 5722 5715 5703 5693 5687 5682 5671
5684 5688 5693 5701 5707 5715 5721 5727 5733 5737 5739 5743 5751 5754 5757 5758 5759 5760 5761 5759 5765 5777 5785 5789 5789 5783 5778 5770 5762 5762 5758 5747 5737 5732 5723 5714 5710 5699 5691 5681 5672 5662 5654